Hourly Data Report for October 06, 2015

All times are specified in Local Standard Time (LST). Add 1 hour to adjust for Daylight Saving Time where and when it is observed.

OTTAWA INTL A
ONTARIO

45°19'00.000" N
75°40'00.000" W
114.90 m
6106001
71628
YOW

Download Data

Hourly Data (October 2015)
Hourly Data Report for October 6, 2015
Temp Definition
°C
Dew Point Temp Definition
°C
Rel Hum Definition
%
Wind Dir Definition
10's deg

Wind Spd Definition
km/h
Visibility Definition
km
Stn Press Definition
kPa
Hmdx Definition


Wind Chill Definition


Weather Definition


TIME
00:00 Legend Double Dagger 12.3 8.8 79 1 6 24.1 100.63     LegendNANA
01:00 Legend Double Dagger 11.3 9.2 87 19 3 24.1 100.61     Cloudy
02:00 Legend Double Dagger 11.5 9.1 85 36 3 24.1 100.60     LegendNANA
03:00 Legend Double Dagger 10.9 9.2 89 16 5 24.1 100.55     LegendNANA
04:00 Legend Double Dagger 11.1 9.4 89 25 4 24.1 100.56     Mostly Cloudy
05:00 Legend Double Dagger 10.7 9.6 93 20 4 24.1 100.56     LegendNANA
06:00 Legend Double Dagger 11.1 9.7 91 36 2 24.1 100.54     LegendNANA
07:00 Legend Double Dagger 10.9 9.8 93 36 2 24.1 100.53     Cloudy
08:00 Legend Double Dagger 11.7 10.0 89 26 6 24.1 100.54     LegendNANA
09:00 Legend Double Dagger 12.3 10.1 86 24 5 24.1 100.52     LegendNANA
10:00 Legend Double Dagger 13.2 9.7 79 36 1 24.1 100.51     Cloudy
11:00 Legend Double Dagger 14.0 8.0 67 19 5 24.1 100.48     LegendNANA
12:00 Legend Double Dagger 14.5 8.3 66 36 2 24.1 100.43     LegendNANA
13:00 Legend Double Dagger 14.4 8.6 68 21 9 24.1 100.37     Cloudy
14:00 Legend Double Dagger 14.7 9.3 70 28 12 24.1 100.31     LegendNANA
15:00 Legend Double Dagger 14.5 9.6 72 26 8 24.1 100.26     LegendNANA
16:00 Legend Double Dagger 14.5 9.8 73 26 10 24.1 100.22     Cloudy
17:00 Legend Double Dagger 14.1 10.2 77 27 7 24.1 100.20     LegendNANA
18:00 Legend Double Dagger 11.6 9.4 86 27 4 24.1 100.19     LegendNANA
19:00 Legend Double Dagger 9.9 8.5 91 23 4 24.1 100.17     Clear
20:00 Legend Double Dagger 9.8 8.9 94 21 3 24.1 100.18     LegendNANA
21:00 Legend Double Dagger 11.2 10.1 93 19 6 24.1 100.16     LegendNANA
22:00 Legend Double Dagger 11.7 10.5 92 20 7 24.1 100.14     Cloudy
23:00 Legend Double Dagger 11.5 10.6 94 21 10 24.1 100.12     LegendNANA

Notes on Data Quality.

Legend

  • E = Estimated
  • M = Missing
  • NA = Not Available
  • ‡ = Partner data that is not subject to review by the National Climate Archives
Date modified: